FLOCK 4S-17 (47492 NORAD) Tracking and Keplerian Element Data

This shows tracking and keplerian element data for the satellite.

Feedback or suggestion? Click here.




ElementValue
Catalog47492
NameFLOCK 4S-17
Epoch Orbit1198
Epoch Day101.87524296
Epoch Year2021
RAAN164.3197
Inclination97.5037
Eccentricity0.0009891
Argument of Perigee338.5329
Mean Anonmoly21.5485
Mean Motion15.12542396
Decay Rate1.647E-05
L11 47492U 21006CH 21101.87524296 .00001647 00000-0 98121-4 0 9996
L22 47492 97.5037 164.3197 0009891 338.5329 21.5485 15.12542396 11982

Live tracking and technical data element details for FLOCK 4S-17 (NORAD 47492). FLOCK 4S-17 can be tracked NOW for your location showing map with azimuth and elevation plus other details from your city location.

Track the satellite on the map from your city or location and see movement details for azimuth, elevation, latitude, longitude, range, height, and movement on the map or in text.







IsCatalogInMostPopularTable: catalog: 47492, numindb: 15
Update: records affected: 1



GetName: 47492 FLOCK 4S-17

Hit Count: updated at: Tue, 13 Apr 2021 05:07:10 GMT